Weather History for K79J - July, 2013

Change the Weather History Date:

Sunday, July 7, 2013

  Actual Average (KCEW) Record (KCEW)
Temperature  
Mean Temperature 80 °F -  
Max Temperature 86 °F 92 °F 100 °F (1990)
Min Temperature 73 °F 70 °F 67 °F (1952)
Cooling Degree Days 14    
Growing Degree Days 30 (Base 50)    
Moisture  
Dew Point 73 °F    
Average Humidity 85    
Maximum Humidity 94    
Minimum Humidity 63    
Precipitation  
Precipitation 0.19 in - - ()
Sea Level Pressure  
Sea Level Pressure 30.11 in    
Wind  
Wind Speed 4 mph (SSE)    
Max Wind Speed 8 mph    
Max Gust Speed -    
Visibility 10 miles    
Events Rain , Thunderstorm    
Averages and records for this station are not official NWS values.
T = Trace of Precipitation, MM = Missing Value Source: NWS Daily Summary

Daily Weather History Graph

Daily Weather History Graph

Search for Another Location

Airport or City:

Trip Planner

Search our weather history database for the weather conditions in past years. The results will help you decide how hot, cold, wet, or windy it might be!

Date:

Astronomy

Jul. 07, 2013 Rise Set
Actual Time 5:47 AM CDT 7:53 PM CDT
Civil Twilight 5:19 AM CDT 8:20 PM CDT
Nautical Twilight 4:46 AM CDT 8:54 PM CDT
Astronomical Twilight 4:10 AM CDT 9:30 PM CDT
Moon 5:19 AM CDT 7:21 PM CDT
Length of Visible Light 15h 00m
Length of Day
14h 05m
Waning Crescent, 0% of the Moon is Illuminated
Jul 7
Waning Crescent
Jul 8
New
Jul 15
First Quarter
Jul 22
Full
Jul 29
Last Quarter

Hourly Weather History & Observations

Time (CDT) Temp. Heat Index Dew Point Humidity Pressure Visibility Wind Dir Wind Speed Gust Speed Precip Events Conditions
12:56 AM 73.9 °F - 71.1 °F 91% 30.08 in 10.0 mi SE 4.6 mph - N/A   Overcast
1:56 AM 73.9 °F - 72.0 °F 93% 30.08 in 10.0 mi ESE 4.6 mph - N/A   Overcast
2:56 AM 73.9 °F - 71.1 °F 91% 30.06 in 10.0 mi SE 3.5 mph - N/A   Overcast
3:56 AM 73.9 °F - 71.1 °F 91% 30.07 in 10.0 mi SE 3.5 mph - N/A   Overcast
4:56 AM 73.9 °F - 71.1 °F 91% 30.07 in 10.0 mi SE 4.6 mph - N/A   Overcast
5:56 AM 73.9 °F - 71.1 °F 91% 30.08 in 10.0 mi SE 4.6 mph - N/A   Overcast
6:56 AM 73.9 °F - 71.1 °F 91% 30.10 in 10.0 mi SE 4.6 mph - N/A   Overcast
7:56 AM 75.0 °F - 71.1 °F 87% 30.11 in 10.0 mi SE 6.9 mph - N/A   Overcast
8:56 AM 77.0 °F - 72.0 °F 84% 30.12 in 10.0 mi ESE 6.9 mph - N/A   Overcast
9:21 AM 77.0 °F - 71.6 °F 83% 30.13 in 10.0 mi SSE 3.5 mph - N/A   Overcast
9:51 AM 78.8 °F - 73.4 °F 83% 30.14 in 10.0 mi SE 5.8 mph - N/A   Overcast
9:56 AM 78.1 °F - 73.0 °F 84% 30.13 in 10.0 mi SSE 5.8 mph - N/A   Overcast
10:18 AM 78.8 °F - 73.4 °F 83% 30.14 in 10.0 mi SSE 5.8 mph - N/A   Overcast
10:56 AM 80.1 °F 83.8 °F 72.0 °F 76% 30.13 in 10.0 mi SSE 5.8 mph - N/A   Overcast
11:45 AM 82.4 °F 88.2 °F 73.4 °F 74% 30.13 in 10.0 mi South 4.6 mph - N/A   Scattered Clouds
11:56 AM 82.0 °F 87.4 °F 73.0 °F 74% 30.12 in 10.0 mi SE 6.9 mph - N/A   Scattered Clouds
12:17 PM 82.4 °F 88.2 °F 73.4 °F 74% 30.12 in 10.0 mi SE 4.6 mph - N/A   Mostly Cloudy
12:38 PM 84.2 °F 90.9 °F 73.4 °F 70% 30.12 in 10.0 mi South 6.9 mph - N/A   Mostly Cloudy
12:56 PM 84.0 °F 89.6 °F 72.0 °F 67% 30.10 in 10.0 mi SSE 8.1 mph - N/A   Mostly Cloudy
1:56 PM 86.0 °F 92.2 °F 72.0 °F 63% 30.09 in 10.0 mi SSE 5.8 mph - N/A   Partly Cloudy
2:56 PM 79.0 °F - 73.0 °F 82% 30.10 in 10.0 mi Variable 3.5 mph - 0.07 in Rain , Thunderstorm Light Thunderstorms and Rain
3:26 PM 78.8 °F - 73.4 °F 83% 30.12 in 10.0 mi South 4.6 mph - 0.03 in Rain Rain
3:56 PM 78.1 °F - 73.9 °F 87% 30.10 in 10.0 mi Calm Calm - 0.04 in Rain Light Rain
4:24 PM 78.8 °F - 73.4 °F 83% 30.10 in 10.0 mi Calm Calm - 0.01 in Rain Light Rain
4:41 PM 77.0 °F - 73.4 °F 89% 30.10 in 10.0 mi WNW 6.9 mph - 0.01 in   Mostly Cloudy
4:56 PM 77.0 °F - 73.9 °F 90% 30.09 in 10.0 mi NW 3.5 mph - 0.01 in   Partly Cloudy
5:31 PM 77.0 °F - 73.4 °F 89% 30.10 in 10.0 mi Calm Calm - 0.00 in Rain Light Rain
5:56 PM 77.0 °F - 73.9 °F 90% 30.10 in 10.0 mi Calm Calm - 0.02 in Rain Light Rain
6:15 PM 77.0 °F - 73.4 °F 89% 30.10 in 10.0 mi Calm Calm - 0.01 in Rain Light Rain
6:56 PM 77.0 °F - 73.0 °F 88% 30.10 in 10.0 mi Calm Calm - 0.01 in Rain Light Rain
7:03 PM 77.0 °F - 73.4 °F 89% 30.11 in 10.0 mi Calm Calm - 0.00 in Rain Light Rain
7:24 PM 77.0 °F - 73.4 °F 89% 30.12 in 10.0 mi North 3.5 mph - 0.01 in Rain Light Rain
7:56 PM 75.9 °F - 73.0 °F 91% 30.12 in 10.0 mi Calm Calm - 0.01 in Rain Light Rain
8:56 PM 75.9 °F - 73.0 °F 91% 30.13 in 10.0 mi Calm Calm - 0.03 in Rain Light Rain
9:56 PM 75.0 °F - 73.0 °F 94% 30.13 in 10.0 mi South 4.6 mph - 0.00 in   Mostly Cloudy
10:56 PM 75.9 °F - 72.0 °F 87% 30.13 in 10.0 mi Calm Calm - N/A   Clear
11:32 PM 75.2 °F - 71.6 °F 89% 30.15 in 10.0 mi Calm Calm - N/A   Partly Cloudy
11:56 PM 75.0 °F - 72.0 °F 90% 30.13 in 10.0 mi South 3.5 mph - N/A   Partly Cloudy